Time,TemperatureF,DewpointF,PressureIn,WindDirection,WindDirectionDegrees,WindSpeedMPH,WindSpeedGustMPH,Humidity,HourlyPrecipIn,Conditions,Clouds,dailyrainin,SoftwareType,DateUTC
2013-02-28 00:00:00,33.1,33.0,29.79,ESE,112,7.5,25.2,99,0.00,,,0.00,Rainwise IP-100,2013-02-28 05:00:00,
2013-02-28 00:05:00,33.2,33.0,29.79,SE,135,20.1,27.3,99,0.00,,,0.00,Rainwise IP-100,2013-02-28 05:05:00,
2013-02-28 00:10:00,33.4,33.0,29.80,ESE,112,12.6,24.0,99,0.00,,,0.00,Rainwise IP-100,2013-02-28 05:10:00,
2013-02-28 00:15:00,33.5,35.0,29.79,ESE,112,14.7,24.7,98,0.12,,,0.02,Rainwise IP-100,2013-02-28 05:15:00,
2013-02-28 00:20:00,33.7,35.0,29.78,SE,135,7.0,23.6,98,0.18,,,0.03,Rainwise IP-100,2013-02-28 05:20:00,
2013-02-28 00:25:00,33.8,35.0,29.78,SE,135,10.0,22.9,98,0.06,,,0.04,Rainwise IP-100,2013-02-28 05:25:00,
2013-02-28 00:30:00,33.9,35.0,29.79,ESE,112,7.9,24.5,98,0.06,,,0.04,Rainwise IP-100,2013-02-28 05:30:00,
2013-02-28 00:35:00,34.1,35.0,29.76,ESE,112,11.2,27.0,98,0.18,,,0.06,Rainwise IP-100,2013-02-28 05:35:00,
2013-02-28 00:40:00,34.4,35.0,29.77,SE,135,9.8,28.4,98,0.18,,,0.07,Rainwise IP-100,2013-02-28 05:40:00,
2013-02-28 00:45:00,34.6,33.0,29.75,South,180,2.8,27.3,97,0.12,,,0.08,Rainwise IP-100,2013-02-28 05:45:00,
2013-02-28 00:50:00,34.7,33.0,29.77,SSE,157,13.1,23.1,97,0.06,,,0.08,Rainwise IP-100,2013-02-28 05:50:00,
2013-02-28 00:55:00,34.8,33.0,29.79,ESE,112,18.7,24.7,97,0.06,,,0.09,Rainwise IP-100,2013-02-28 05:55:00,
2013-02-28 01:00:00,34.9,33.0,29.78,SE,135,8.9,22.2,97,0.12,,,0.10,Rainwise IP-100,2013-02-28 06:00:00,
2013-02-28 01:05:00,35.0,33.0,29.77,ESE,112,14.5,21.9,97,0.06,,,0.10,Rainwise IP-100,2013-02-28 06:05:00,
2013-02-28 01:10:00,35.0,33.0,29.77,ESE,112,8.9,17.7,97,0.12,,,0.12,Rainwise IP-100,2013-02-28 06:10:00,
2013-02-28 01:15:00,35.0,33.0,29.76,ESE,112,22.9,24.5,97,0.18,,,0.14,Rainwise IP-100,2013-02-28 06:15:00,
2013-02-28 01:20:00,35.1,33.0,29.78,SE,135,11.4,24.7,97,0.12,,,0.14,Rainwise IP-100,2013-02-28 06:20:00,
2013-02-28 01:25:00,35.1,33.0,29.77,ESE,112,26.6,26.6,97,0.12,,,0.15,Rainwise IP-100,2013-02-28 06:25:00,
2013-02-28 01:30:00,35.1,33.0,29.78,SSE,157,17.7,26.6,97,0.12,,,0.16,Rainwise IP-100,2013-02-28 06:30:00,
2013-02-28 01:35:00,35.1,33.0,29.76,ESE,112,12.6,27.5,97,0.12,,,0.17,Rainwise IP-100,2013-02-28 06:35:00,
2013-02-28 01:40:00,35.1,33.0,29.78,SSE,157,7.7,22.4,97,0.12,,,0.18,Rainwise IP-100,2013-02-28 06:40:00,
2013-02-28 01:45:00,35.0,35.0,29.78,ESE,112,9.1,22.2,98,0.06,,,0.18,Rainwise IP-100,2013-02-28 06:45:00,
2013-02-28 01:50:00,35.1,35.0,29.76,SE,135,13.8,21.9,98,0.00,,,0.18,Rainwise IP-100,2013-02-28 06:50:00,
2013-02-28 01:55:00,35.1,35.0,29.77,SE,135,3.3,19.8,98,0.00,,,0.18,Rainwise IP-100,2013-02-28 06:55:00,
2013-02-28 02:00:00,35.2,35.0,29.76,SSE,157,5.1,16.3,98,0.00,,,0.18,Rainwise IP-100,2013-02-28 07:00:00,
2013-02-28 02:05:00,35.2,35.0,29.74,ESE,112,11.4,19.8,98,0.06,,,0.19,Rainwise IP-100,2013-02-28 07:05:00,
2013-02-28 02:10:00,35.3,35.0,29.76,ESE,112,12.1,19.4,98,0.06,,,0.19,Rainwise IP-100,2013-02-28 07:10:00,
2013-02-28 02:15:00,35.4,35.0,29.75,ESE,112,13.3,25.9,98,0.06,,,0.20,Rainwise IP-100,2013-02-28 07:15:00,
2013-02-28 02:20:00,35.5,36.0,29.76,SE,135,13.3,20.3,98,0.06,,,0.20,Rainwise IP-100,2013-02-28 07:20:00,
2013-02-28 02:25:00,35.6,36.0,29.75,SE,135,8.4,22.4,98,0.06,,,0.21,Rainwise IP-100,2013-02-28 07:25:00,
2013-02-28 02:30:00,35.6,36.0,29.75,SE,135,11.2,22.2,98,0.12,,,0.22,Rainwise IP-100,2013-02-28 07:30:00,
2013-02-28 02:35:00,35.7,36.0,29.75,SE,135,18.4,19.8,99,0.06,,,0.22,Rainwise IP-100,2013-02-28 07:35:00,
2013-02-28 02:40:00,35.9,36.0,29.74,SE,135,12.8,20.5,99,0.00,,,0.22,Rainwise IP-100,2013-02-28 07:40:00,
2013-02-28 02:45:00,36.1,36.0,29.72,SE,135,14.9,20.8,98,0.06,,,0.23,Rainwise IP-100,2013-02-28 07:45:00,
2013-02-28 02:50:00,36.3,36.0,29.75,SE,135,8.9,21.7,98,0.12,,,0.24,Rainwise IP-100,2013-02-28 07:50:00,
2013-02-28 02:55:00,36.3,36.0,29.71,SE,135,17.0,18.9,98,0.06,,,0.24,Rainwise IP-100,2013-02-28 07:55:00,
2013-02-28 03:00:00,36.3,36.0,29.74,SE,135,11.7,18.0,98,0.06,,,0.25,Rainwise IP-100,2013-02-28 08:00:00,
2013-02-28 03:03:00,36.3,36.0,29.73,SE,135,9.6,24.7,98,0.06,,,0.25,Rainwise IP-100,2013-02-28 08:03:00,
2013-02-28 03:08:00,36.4,36.0,29.72,SE,135,12.8,20.5,99,0.06,,,0.26,Rainwise IP-100,2013-02-28 08:08:00,
2013-02-28 03:13:00,36.5,37.0,29.73,SE,135,10.5,19.6,99,0.06,,,0.26,Rainwise IP-100,2013-02-28 08:13:00,
2013-02-28 03:18:00,36.5,37.0,29.72,SE,135,15.2,21.9,99,0.06,,,0.27,Rainwise IP-100,2013-02-28 08:18:00,
2013-02-28 03:23:00,36.6,37.0,29.74,SE,135,8.4,20.1,99,0.06,,,0.27,Rainwise IP-100,2013-02-28 08:23:00,
2013-02-28 03:28:00,36.7,37.0,29.74,SE,135,10.5,16.6,99,0.06,,,0.28,Rainwise IP-100,2013-02-28 08:28:00,
2013-02-28 03:33:00,36.8,37.0,29.72,SE,135,11.2,16.6,99,0.06,,,0.28,Rainwise IP-100,2013-02-28 08:33:00,
2013-02-28 03:38:00,36.9,37.0,29.74,SE,135,11.2,15.2,99,0.00,,,0.28,Rainwise IP-100,2013-02-28 08:38:00,
2013-02-28 03:43:00,37.0,37.0,29.72,SE,135,12.6,15.9,99,0.00,,,0.28,Rainwise IP-100,2013-02-28 08:43:00,
2013-02-28 03:48:00,36.9,37.0,29.71,SE,135,12.4,14.7,99,0.06,,,0.29,Rainwise IP-100,2013-02-28 08:48:00,
2013-02-28 03:53:00,37.0,37.0,29.72,SE,135,9.6,19.4,99,0.06,,,0.29,Rainwise IP-100,2013-02-28 08:53:00,
2013-02-28 03:58:00,37.0,37.0,29.73,SE,135,8.2,15.2,100,0.06,,,0.30,Rainwise IP-100,2013-02-28 08:58:00,
2013-02-28 04:03:00,37.0,37.0,29.74,SE,135,6.1,14.9,100,0.06,,,0.30,Rainwise IP-100,2013-02-28 09:03:00,
2013-02-28 04:08:00,37.0,37.0,29.72,SE,135,1.6,12.8,100,0.00,,,0.30,Rainwise IP-100,2013-02-28 09:08:00,
2013-02-28 04:13:00,37.0,37.0,29.72,SSE,157,6.5,14.0,100,0.00,,,0.30,Rainwise IP-100,2013-02-28 09:13:00,
2013-02-28 04:18:00,37.1,37.0,29.72,SE,135,4.4,17.0,100,0.00,,,0.30,Rainwise IP-100,2013-02-28 09:18:00,
2013-02-28 04:23:00,37.2,37.0,29.72,SE,135,5.4,18.7,100,0.06,,,0.31,Rainwise IP-100,2013-02-28 09:23:00,
2013-02-28 04:28:00,37.3,37.0,29.71,SE,135,6.3,15.9,100,0.06,,,0.31,Rainwise IP-100,2013-02-28 09:28:00,
2013-02-28 04:33:00,37.4,37.0,29.74,SE,135,11.9,15.9,100,0.06,,,0.32,Rainwise IP-100,2013-02-28 09:33:00,
2013-02-28 04:38:00,37.4,37.0,29.70,SE,135,14.9,15.2,100,0.06,,,0.32,Rainwise IP-100,2013-02-28 09:38:00,
2013-02-28 04:43:00,37.4,37.0,29.72,SE,135,6.5,17.0,100,0.06,,,0.33,Rainwise IP-100,2013-02-28 09:43:00,
2013-02-28 04:48:00,37.4,37.0,29.72,SE,135,8.2,16.8,100,0.12,,,0.34,Rainwise IP-100,2013-02-28 09:48:00,
2013-02-28 04:53:00,37.3,37.0,29.72,SSE,157,6.8,15.6,100,0.06,,,0.34,Rainwise IP-100,2013-02-28 09:53:00,
2013-02-28 04:58:00,37.4,37.0,29.71,SE,135,8.4,16.6,100,0.00,,,0.34,Rainwise IP-100,2013-02-28 09:58:00,
2013-02-28 05:03:00,37.4,37.0,29.70,SE,135,12.6,14.5,100,0.00,,,0.34,Rainwise IP-100,2013-02-28 10:03:00,
2013-02-28 05:08:00,37.4,37.0,29.72,SE,135,5.6,14.0,100,0.06,,,0.35,Rainwise IP-100,2013-02-28 10:08:00,
2013-02-28 05:13:00,37.4,37.0,29.73,SE,135,7.5,14.2,100,0.06,,,0.35,Rainwise IP-100,2013-02-28 10:13:00,
2013-02-28 05:18:00,37.6,38.0,29.71,SE,135,11.2,17.7,100,0.00,,,0.35,Rainwise IP-100,2013-02-28 10:18:00,
2013-02-28 05:23:00,37.8,38.0,29.71,SE,135,10.7,18.2,100,0.00,,,0.35,Rainwise IP-100,2013-02-28 10:23:00,
2013-02-28 05:28:00,37.8,38.0,29.70,SE,135,10.0,15.2,100,0.00,,,0.36,Rainwise IP-100,2013-02-28 10:28:00,
2013-02-28 05:33:00,37.8,38.0,29.72,SE,135,11.9,20.1,100,0.06,,,0.36,Rainwise IP-100,2013-02-28 10:33:00,
2013-02-28 05:38:00,37.9,38.0,29.72,SE,135,13.3,19.4,100,0.06,,,0.36,Rainwise IP-100,2013-02-28 10:38:00,
2013-02-28 05:43:00,37.9,38.0,29.71,South,180,8.2,20.3,100,0.00,,,0.36,Rainwise IP-100,2013-02-28 10:43:00,
2013-02-28 05:48:00,37.8,38.0,29.70,SE,135,7.9,22.2,100,0.06,,,0.37,Rainwise IP-100,2013-02-28 10:48:00,
2013-02-28 05:53:00,37.8,38.0,29.73,SE,135,12.4,18.4,100,0.12,,,0.38,Rainwise IP-100,2013-02-28 10:53:00,
2013-02-28 05:58:00,37.8,38.0,29.73,SE,135,4.7,17.3,100,0.12,,,0.39,Rainwise IP-100,2013-02-28 10:58:00,
2013-02-28 06:03:00,37.7,38.0,29.72,SE,135,10.0,18.7,100,0.12,,,0.40,Rainwise IP-100,2013-02-28 11:03:00,
2013-02-28 06:08:00,37.7,38.0,29.71,ESE,112,10.7,16.6,100,0.12,,,0.41,Rainwise IP-100,2013-02-28 11:08:00,
2013-02-28 06:13:00,37.7,38.0,29.71,ESE,112,19.4,19.4,100,0.06,,,0.41,Rainwise IP-100,2013-02-28 11:13:00,
2013-02-28 06:18:00,37.7,38.0,29.72,ESE,112,13.8,21.5,100,0.06,,,0.42,Rainwise IP-100,2013-02-28 11:18:00,
2013-02-28 06:23:00,37.8,38.0,29.73,SE,135,14.0,18.2,100,0.06,,,0.42,Rainwise IP-100,2013-02-28 11:23:00,
2013-02-28 06:28:00,37.8,38.0,29.71,ESE,112,11.2,16.8,100,0.00,,,0.42,Rainwise IP-100,2013-02-28 11:28:00,
2013-02-28 06:33:00,37.8,38.0,29.71,SE,135,11.4,18.4,100,0.00,,,0.42,Rainwise IP-100,2013-02-28 11:33:00,
2013-02-28 06:38:00,37.8,38.0,29.72,SSE,157,14.5,21.7,100,0.06,,,0.43,Rainwise IP-100,2013-02-28 11:38:00,
2013-02-28 06:43:00,37.8,38.0,29.72,ESE,112,7.7,18.0,100,0.06,,,0.43,Rainwise IP-100,2013-02-28 11:43:00,
2013-02-28 06:48:00,37.6,38.0,29.71,SE,135,18.0,19.1,100,0.06,,,0.44,Rainwise IP-100,2013-02-28 11:48:00,
2013-02-28 06:53:00,37.6,38.0,29.69,SSE,157,10.3,21.7,100,0.06,,,0.44,Rainwise IP-100,2013-02-28 11:53:00,
2013-02-28 06:58:00,37.6,38.0,29.71,SSE,157,9.6,14.9,100,0.00,,,0.44,Rainwise IP-100,2013-02-28 11:58:00,
2013-02-28 07:03:00,37.6,38.0,29.71,SSE,157,11.0,17.7,100,0.06,,,0.45,Rainwise IP-100,2013-02-28 12:03:00,
2013-02-28 07:08:00,37.6,38.0,29.71,SSE,157,12.1,18.9,100,0.06,,,0.45,Rainwise IP-100,2013-02-28 12:08:00,
2013-02-28 07:13:00,37.6,38.0,29.69,ESE,112,7.7,19.8,100,0.00,,,0.45,Rainwise IP-100,2013-02-28 12:13:00,
2013-02-28 07:18:00,37.7,38.0,29.72,ESE,112,10.7,17.7,100,0.06,,,0.46,Rainwise IP-100,2013-02-28 12:18:00,
2013-02-28 07:23:00,37.7,38.0,29.71,SSE,157,7.5,19.4,100,0.06,,,0.46,Rainwise IP-100,2013-02-28 12:23:00,
2013-02-28 07:28:00,37.8,38.0,29.71,ESE,112,17.5,21.0,100,0.00,,,0.46,Rainwise IP-100,2013-02-28 12:28:00,
2013-02-28 07:33:00,37.9,38.0,29.70,SE,135,15.4,21.2,100,0.00,,,0.46,Rainwise IP-100,2013-02-28 12:33:00,
2013-02-28 07:38:00,38.0,38.0,29.72,SSE,157,8.9,20.1,100,0.06,,,0.47,Rainwise IP-100,2013-02-28 12:38:00,
2013-02-28 07:43:00,38.0,38.0,29.71,SSE,157,8.6,20.3,100,0.06,,,0.47,Rainwise IP-100,2013-02-28 12:43:00,
2013-02-28 07:48:00,38.0,38.0,29.68,ESE,112,11.9,18.9,100,0.00,,,0.47,Rainwise IP-100,2013-02-28 12:48:00,
2013-02-28 07:53:00,37.9,38.0,29.69,SE,135,9.1,16.6,100,0.06,,,0.48,Rainwise IP-100,2013-02-28 12:53:00,
2013-02-28 07:58:00,37.9,38.0,29.71,SSE,157,5.1,19.4,100,0.06,,,0.48,Rainwise IP-100,2013-02-28 12:58:00,
2013-02-28 08:03:00,37.9,38.0,29.69,SSE,157,8.6,14.9,100,0.00,,,0.48,Rainwise IP-100,2013-02-28 13:03:00,
2013-02-28 08:08:00,37.9,38.0,29.68,SSE,157,11.2,14.7,100,0.00,,,0.48,Rainwise IP-100,2013-02-28 13:08:00,
2013-02-28 08:13:00,37.9,38.0,29.70,SE,135,10.5,16.3,100,0.06,,,0.49,Rainwise IP-100,2013-02-28 13:13:00,
2013-02-28 08:18:00,37.9,38.0,29.71,SE,135,5.6,17.0,100,0.06,,,0.49,Rainwise IP-100,2013-02-28 13:18:00,
2013-02-28 08:23:00,37.9,38.0,29.72,ESE,112,9.8,19.1,100,0.00,,,0.49,Rainwise IP-100,2013-02-28 13:23:00,
2013-02-28 08:28:00,38.0,38.0,29.71,SSE,157,9.1,18.9,100,0.00,,,0.49,Rainwise IP-100,2013-02-28 13:28:00,
2013-02-28 08:33:00,38.1,38.0,29.69,ESE,112,11.0,19.6,100,0.00,,,0.49,Rainwise IP-100,2013-02-28 13:33:00,
2013-02-28 08:38:00,38.1,38.0,29.69,SE,135,10.0,18.9,100,0.06,,,0.50,Rainwise IP-100,2013-02-28 13:38:00,
2013-02-28 08:43:00,38.1,38.0,29.71,SE,135,7.7,21.5,100,0.06,,,0.50,Rainwise IP-100,2013-02-28 13:43:00,
2013-02-28 08:48:00,38.1,38.0,29.70,SE,135,7.5,21.5,100,0.00,,,0.50,Rainwise IP-100,2013-02-28 13:48:00,
2013-02-28 08:53:00,38.1,38.0,29.70,SE,135,18.7,19.1,100,0.00,,,0.50,Rainwise IP-100,2013-02-28 13:53:00,
2013-02-28 08:58:00,38.2,38.0,29.71,SE,135,10.5,21.9,100,0.00,,,0.50,Rainwise IP-100,2013-02-28 13:58:00,
2013-02-28 09:03:00,38.2,38.0,29.67,SE,135,15.4,15.6,100,0.00,,,0.50,Rainwise IP-100,2013-02-28 14:03:00,
2013-02-28 09:08:00,38.2,38.0,29.67,ESE,112,10.5,19.6,100,0.00,,,0.50,Rainwise IP-100,2013-02-28 14:08:00,
2013-02-28 09:13:00,38.1,38.0,29.68,SE,135,14.7,17.3,100,0.00,,,0.50,Rainwise IP-100,2013-02-28 14:13:00,
2013-02-28 09:18:00,38.1,38.0,29.68,ESE,112,15.2,15.2,100,0.00,,,0.50,Rainwise IP-100,2013-02-28 14:18:00,
2013-02-28 09:23:00,38.0,38.0,29.68,SSE,157,6.3,19.4,100,0.00,,,0.50,Rainwise IP-100,2013-02-28 14:23:00,
2013-02-28 09:28:00,38.0,38.0,29.66,SE,135,10.5,16.6,100,0.00,,,0.50,Rainwise IP-100,2013-02-28 14:28:00,
2013-02-28 09:33:00,38.1,38.0,29.68,ESE,112,14.2,14.2,100,0.00,,,0.50,Rainwise IP-100,2013-02-28 14:33:00,
2013-02-28 09:38:00,38.1,38.0,29.71,ESE,112,7.0,18.9,100,0.00,,,0.50,Rainwise IP-100,2013-02-28 14:38:00,
2013-02-28 09:43:00,38.2,38.0,29.68,SSE,157,10.7,16.8,100,0.00,,,0.50,Rainwise IP-100,2013-02-28 14:43:00,
2013-02-28 09:48:00,38.2,38.0,29.64,SE,135,4.9,17.5,100,0.00,,,0.50,Rainwise IP-100,2013-02-28 14:48:00,
2013-02-28 09:53:00,38.3,38.0,29.66,ESE,112,14.2,18.9,100,0.00,,,0.50,Rainwise IP-100,2013-02-28 14:53:00,
2013-02-28 09:58:00,38.3,38.0,29.67,ESE,112,13.1,16.6,100,0.00,,,0.50,Rainwise IP-100,2013-02-28 14:58:00,
2013-02-28 10:03:00,38.3,38.0,29.68,SSE,157,11.4,18.4,100,0.00,,,0.50,Rainwise IP-100,2013-02-28 15:03:00,
2013-02-28 10:08:00,38.3,38.0,29.66,SE,135,10.0,19.6,100,0.00,,,0.50,Rainwise IP-100,2013-02-28 15:08:00,
2013-02-28 10:13:00,38.3,38.0,29.69,SE,135,14.2,18.9,100,0.00,,,0.50,Rainwise IP-100,2013-02-28 15:13:00,
2013-02-28 10:18:00,38.3,38.0,29.68,SE,135,11.4,20.1,100,0.00,,,0.50,Rainwise IP-100,2013-02-28 15:18:00,
2013-02-28 10:23:00,38.3,38.0,29.68,ESE,112,9.8,14.5,100,0.00,,,0.50,Rainwise IP-100,2013-02-28 15:23:00,
2013-02-28 10:28:00,38.3,38.0,29.65,SE,135,12.8,20.1,100,0.00,,,0.50,Rainwise IP-100,2013-02-28 15:28:00,
2013-02-28 10:33:00,38.3,38.0,29.65,ESE,112,5.6,20.8,100,0.00,,,0.50,Rainwise IP-100,2013-02-28 15:33:00,
2013-02-28 10:38:00,38.3,38.0,29.67,ESE,112,7.5,14.7,100,0.00,,,0.50,Rainwise IP-100,2013-02-28 15:38:00,
2013-02-28 10:43:00,38.3,38.0,29.67,SSE,157,7.2,15.6,100,0.00,,,0.50,Rainwise IP-100,2013-02-28 15:43:00,
2013-02-28 10:48:00,38.3,38.0,29.65,SE,135,9.3,16.6,100,0.00,,,0.50,Rainwise IP-100,2013-02-28 15:48:00,
2013-02-28 10:53:00,38.3,38.0,29.64,SSE,157,10.0,16.3,100,0.00,,,0.50,Rainwise IP-100,2013-02-28 15:53:00,
2013-02-28 10:58:00,38.3,38.0,29.63,ESE,112,7.9,18.4,100,0.00,,,0.50,Rainwise IP-100,2013-02-28 15:58:00,
2013-02-28 11:03:00,38.3,38.0,29.66,SSE,157,10.0,17.7,100,0.00,,,0.50,Rainwise IP-100,2013-02-28 16:03:00,
2013-02-28 11:08:00,38.4,38.0,29.65,ESE,112,7.0,19.1,100,0.06,,,0.51,Rainwise IP-100,2013-02-28 16:08:00,
2013-02-28 11:13:00,38.5,39.0,29.66,ESE,112,12.8,13.1,100,0.06,,,0.51,Rainwise IP-100,2013-02-28 16:13:00,
2013-02-28 11:18:00,38.5,39.0,29.66,ESE,112,10.0,18.0,100,0.00,,,0.51,Rainwise IP-100,2013-02-28 16:18:00,
2013-02-28 11:23:00,38.5,39.0,29.67,ESE,112,6.8,18.0,100,0.00,,,0.51,Rainwise IP-100,2013-02-28 16:23:00,
2013-02-28 11:28:00,38.5,39.0,29.63,SE,135,10.0,17.7,100,0.06,,,0.52,Rainwise IP-100,2013-02-28 16:28:00,
2013-02-28 11:33:00,38.6,39.0,29.68,SSE,157,9.6,20.1,100,0.06,,,0.52,Rainwise IP-100,2013-02-28 16:33:00,
2013-02-28 11:38:00,38.6,39.0,29.61,SE,135,12.8,15.6,100,0.00,,,0.52,Rainwise IP-100,2013-02-28 16:38:00,
2013-02-28 11:43:00,38.6,39.0,29.66,SSE,157,6.8,16.1,100,0.00,,,0.52,Rainwise IP-100,2013-02-28 16:43:00,
2013-02-28 11:48:00,38.6,39.0,29.66,SE,135,12.4,19.1,100,0.00,,,0.52,Rainwise IP-100,2013-02-28 16:48:00,
2013-02-28 11:53:00,38.6,39.0,29.65,ESE,112,7.2,14.2,100,0.00,,,0.52,Rainwise IP-100,2013-02-28 16:53:00,
2013-02-28 11:58:00,38.6,39.0,29.66,SSE,157,7.0,12.6,100,0.00,,,0.52,Rainwise IP-100,2013-02-28 16:58:00,
2013-02-28 12:03:00,38.7,39.0,29.64,ESE,112,6.8,15.9,100,0.06,,,0.53,Rainwise IP-100,2013-02-28 17:03:00,
2013-02-28 12:08:00,38.7,39.0,29.64,ESE,112,8.4,16.8,100,0.06,,,0.53,Rainwise IP-100,2013-02-28 17:08:00,
2013-02-28 12:13:00,38.7,39.0,29.62,SE,135,12.1,14.7,100,0.00,,,0.53,Rainwise IP-100,2013-02-28 17:13:00,
2013-02-28 12:18:00,38.8,39.0,29.62,ESE,112,15.4,17.7,100,0.00,,,0.53,Rainwise IP-100,2013-02-28 17:18:00,
2013-02-28 12:23:00,38.8,39.0,29.64,SE,135,11.4,18.7,100,0.06,,,0.54,Rainwise IP-100,2013-02-28 17:23:00,
2013-02-28 12:28:00,38.8,39.0,29.65,East,90,7.9,18.7,100,0.06,,,0.54,Rainwise IP-100,2013-02-28 17:28:00,
2013-02-28 12:33:00,38.8,39.0,29.62,SE,135,12.8,16.8,100,0.00,,,0.54,Rainwise IP-100,2013-02-28 17:33:00,
2013-02-28 12:38:00,38.8,39.0,29.64,ESE,112,6.3,15.6,100,0.00,,,0.54,Rainwise IP-100,2013-02-28 17:38:00,
2013-02-28 12:43:00,38.9,39.0,29.63,SE,135,8.2,12.4,100,0.00,,,0.54,Rainwise IP-100,2013-02-28 17:43:00,
2013-02-28 12:48:00,38.8,39.0,29.62,ESE,112,14.0,17.3,100,0.00,,,0.54,Rainwise IP-100,2013-02-28 17:48:00,
2013-02-28 12:53:00,38.7,39.0,29.61,SE,135,11.9,19.1,100,0.00,,,0.54,Rainwise IP-100,2013-02-28 17:53:00,
2013-02-28 12:58:00,38.7,39.0,29.64,ESE,112,11.4,18.0,100,0.00,,,0.54,Rainwise IP-100,2013-02-28 17:58:00,
2013-02-28 13:03:00,38.6,39.0,29.61,SE,135,12.1,19.4,100,0.06,,,0.55,Rainwise IP-100,2013-02-28 18:03:00,
2013-02-28 13:08:00,38.7,39.0,29.60,ESE,112,13.5,20.3,100,0.06,,,0.55,Rainwise IP-100,2013-02-28 18:08:00,
2013-02-28 13:13:00,38.7,39.0,29.59,East,90,4.2,21.7,100,0.00,,,0.55,Rainwise IP-100,2013-02-28 18:13:00,
2013-02-28 13:18:00,38.8,39.0,29.60,ESE,112,8.2,19.8,100,0.00,,,0.55,Rainwise IP-100,2013-02-28 18:18:00,
2013-02-28 13:19:00,38.8,39.0,29.60,SE,135,19.6,20.3,100,0.00,,,0.55,Rainwise IP-100,2013-02-28 18:19:00,
2013-02-28 13:23:00,38.8,39.0,29.62,ESE,112,17.0,20.3,100,0.00,,,0.55,Rainwise IP-100,2013-02-28 18:23:00,
2013-02-28 13:28:00,38.8,39.0,29.61,ESE,112,17.7,20.8,100,0.00,,,0.55,Rainwise IP-100,2013-02-28 18:28:00,
2013-02-28 13:33:00,38.7,39.0,29.61,ESE,112,17.0,22.6,100,0.00,,,0.55,Rainwise IP-100,2013-02-28 18:33:00,
2013-02-28 13:38:00,38.7,39.0,29.58,ESE,112,10.5,21.2,100,0.00,,,0.55,Rainwise IP-100,2013-02-28 18:38:00,
2013-02-28 13:43:00,38.6,39.0,29.57,ESE,112,15.4,21.2,100,0.00,,,0.55,Rainwise IP-100,2013-02-28 18:43:00,
2013-02-28 13:48:00,38.6,39.0,29.59,SE,135,11.7,21.0,100,0.00,,,0.55,Rainwise IP-100,2013-02-28 18:48:00,
2013-02-28 13:53:00,38.7,39.0,29.61,ESE,112,16.3,21.2,100,0.06,,,0.56,Rainwise IP-100,2013-02-28 18:53:00,
2013-02-28 13:58:00,38.7,39.0,29.58,ESE,112,15.9,20.1,100,0.06,,,0.56,Rainwise IP-100,2013-02-28 18:58:00,
2013-02-28 14:03:00,38.7,39.0,29.59,ESE,112,16.1,19.4,100,0.00,,,0.56,Rainwise IP-100,2013-02-28 19:03:00,
2013-02-28 14:08:00,38.7,39.0,29.59,ESE,112,13.1,18.7,100,0.00,,,0.56,Rainwise IP-100,2013-02-28 19:08:00,
2013-02-28 14:13:00,38.8,39.0,29.59,ESE,112,13.5,16.3,100,0.00,,,0.56,Rainwise IP-100,2013-02-28 19:13:00,
2013-02-28 14:18:00,38.8,39.0,29.58,SSE,157,7.7,14.2,100,0.00,,,0.56,Rainwise IP-100,2013-02-28 19:18:00,
2013-02-28 14:23:00,38.7,39.0,29.60,ESE,112,4.9,13.8,100,0.00,,,0.56,Rainwise IP-100,2013-02-28 19:23:00,
2013-02-28 14:28:00,38.6,39.0,29.59,SE,135,6.8,14.2,100,0.00,,,0.57,Rainwise IP-100,2013-02-28 19:28:00,
2013-02-28 14:33:00,38.5,39.0,29.61,ESE,112,6.3,9.3,100,0.06,,,0.57,Rainwise IP-100,2013-02-28 19:33:00,
2013-02-28 14:38:00,38.4,38.0,29.60,SE,135,4.7,14.2,100,0.06,,,0.57,Rainwise IP-100,2013-02-28 19:38:00,
2013-02-28 14:43:00,38.5,39.0,29.58,SSE,157,6.8,10.0,100,0.00,,,0.57,Rainwise IP-100,2013-02-28 19:43:00,
2013-02-28 14:48:00,38.5,39.0,29.59,SSE,157,9.1,15.6,100,0.00,,,0.57,Rainwise IP-100,2013-02-28 19:48:00,
2013-02-28 14:53:00,38.4,38.0,29.61,SE,135,3.7,18.4,100,0.06,,,0.58,Rainwise IP-100,2013-02-28 19:53:00,
2013-02-28 14:58:00,38.3,38.0,29.58,ESE,112,8.6,14.9,100,0.06,,,0.58,Rainwise IP-100,2013-02-28 19:58:00,
2013-02-28 15:03:00,38.3,38.0,29.59,ESE,112,9.1,12.8,100,0.00,,,0.58,Rainwise IP-100,2013-02-28 20:03:00,
2013-02-28 15:08:00,38.2,38.0,29.59,SSE,157,6.8,16.1,100,0.00,,,0.58,Rainwise IP-100,2013-02-28 20:08:00,
2013-02-28 15:13:00,38.1,38.0,29.60,ESE,112,6.8,12.1,100,0.00,,,0.58,Rainwise IP-100,2013-02-28 20:13:00,
2013-02-28 15:18:00,38.1,38.0,29.57,East,90,9.3,13.3,100,0.06,,,0.59,Rainwise IP-100,2013-02-28 20:18:00,
2013-02-28 15:23:00,38.1,38.0,29.57,East,90,7.9,14.9,100,0.06,,,0.59,Rainwise IP-100,2013-02-28 20:23:00,
2013-02-28 15:28:00,38.1,38.0,29.57,East,90,6.8,13.8,100,0.00,,,0.59,Rainwise IP-100,2013-02-28 20:28:00,
2013-02-28 15:33:00,38.0,38.0,29.59,SE,135,4.2,11.2,100,0.06,,,0.60,Rainwise IP-100,2013-02-28 20:33:00,
2013-02-28 15:38:00,37.9,38.0,29.58,ESE,112,8.6,10.7,100,0.06,,,0.60,Rainwise IP-100,2013-02-28 20:38:00,
2013-02-28 15:43:00,37.7,38.0,29.58,East,90,1.6,10.3,100,0.00,,,0.60,Rainwise IP-100,2013-02-28 20:43:00,
2013-02-28 15:48:00,37.5,38.0,29.60,ESE,112,5.1,8.9,100,0.00,,,0.60,Rainwise IP-100,2013-02-28 20:48:00,
2013-02-28 15:53:00,37.4,37.0,29.59,East,90,4.2,13.3,100,0.00,,,0.60,Rainwise IP-100,2013-02-28 20:53:00,
2013-02-28 15:58:00,37.3,37.0,29.58,ESE,112,7.0,10.7,100,0.00,,,0.61,Rainwise IP-100,2013-02-28 20:58:00,
2013-02-28 16:03:00,37.2,37.0,29.59,ESE,112,4.2,11.9,100,0.06,,,0.61,Rainwise IP-100,2013-02-28 21:03:00,
2013-02-28 16:08:00,37.1,37.0,29.58,East,90,6.5,10.3,100,0.06,,,0.61,Rainwise IP-100,2013-02-28 21:08:00,
2013-02-28 16:13:00,37.1,37.0,29.61,ESE,112,10.5,11.4,100,0.00,,,0.61,Rainwise IP-100,2013-02-28 21:13:00,
2013-02-28 16:18:00,37.3,37.0,29.60,East,90,9.3,12.1,100,0.00,,,0.61,Rainwise IP-100,2013-02-28 21:18:00,
2013-02-28 16:23:00,37.2,37.0,29.59,ESE,112,10.5,11.2,100,0.00,,,0.62,Rainwise IP-100,2013-02-28 21:23:00,
2013-02-28 16:28:00,37.2,37.0,29.58,ESE,112,4.0,15.2,100,0.06,,,0.62,Rainwise IP-100,2013-02-28 21:28:00,
2013-02-28 16:33:00,37.2,37.0,29.57,East,90,13.8,13.8,100,0.06,,,0.62,Rainwise IP-100,2013-02-28 21:33:00,
2013-02-28 16:38:00,36.7,37.0,29.57,East,90,4.4,15.9,100,0.00,,,0.62,Rainwise IP-100,2013-02-28 21:38:00,
2013-02-28 16:43:00,36.1,36.0,29.57,ENE,67,11.2,14.9,100,0.00,,,0.62,Rainwise IP-100,2013-02-28 21:43:00,
2013-02-28 16:48:00,35.9,36.0,29.58,NE,45,6.1,14.2,100,0.00,,,0.62,Rainwise IP-100,2013-02-28 21:48:00,
2013-02-28 16:53:00,35.8,36.0,29.56,East,90,7.9,13.8,100,0.00,,,0.62,Rainwise IP-100,2013-02-28 21:53:00,
2013-02-28 16:58:00,35.6,36.0,29.58,ESE,112,5.8,17.5,100,0.00,,,0.62,Rainwise IP-100,2013-02-28 21:58:00,
2013-02-28 17:03:00,35.6,36.0,29.56,ENE,67,6.5,14.2,100,0.00,,,0.62,Rainwise IP-100,2013-02-28 22:03:00,
2013-02-28 17:08:00,35.5,36.0,29.55,East,90,4.7,14.9,100,0.00,,,0.62,Rainwise IP-100,2013-02-28 22:08:00,
2013-02-28 17:13:00,35.4,35.0,29.58,ENE,67,2.3,14.0,100,0.00,,,0.62,Rainwise IP-100,2013-02-28 22:13:00,
2013-02-28 17:18:00,35.4,35.0,29.60,ENE,67,2.6,9.3,100,0.00,,,0.62,Rainwise IP-100,2013-02-28 22:18:00,
2013-02-28 17:23:00,35.2,35.0,29.58,ENE,67,7.0,14.7,100,0.00,,,0.62,Rainwise IP-100,2013-02-28 22:23:00,
2013-02-28 17:28:00,34.8,35.0,29.59,ENE,67,5.4,14.0,100,0.00,,,0.62,Rainwise IP-100,2013-02-28 22:28:00,
2013-02-28 17:33:00,34.5,35.0,29.58,East,90,6.1,11.2,100,0.00,,,0.62,Rainwise IP-100,2013-02-28 22:33:00,
2013-02-28 17:38:00,34.3,35.0,29.56,ENE,67,5.1,14.7,100,0.00,,,0.62,Rainwise IP-100,2013-02-28 22:38:00,
2013-02-28 17:44:00,34.1,35.0,29.57,ENE,67,4.2,7.5,100,0.00,,,0.62,Rainwise IP-100,2013-02-28 22:44:00,
2013-02-28 17:49:00,33.9,35.0,29.56,NNE,22,2.1,9.6,100,0.00,,,0.62,Rainwise IP-100,2013-02-28 22:49:00,
2013-02-28 17:54:00,33.8,35.0,29.56,ENE,67,8.4,8.4,100,0.00,,,0.62,Rainwise IP-100,2013-02-28 22:54:00,
2013-02-28 17:58:00,33.7,35.0,29.57,ENE,67,6.3,12.6,100,0.00,,,0.62,Rainwise IP-100,2013-02-28 22:58:00,
2013-02-28 18:03:00,33.6,35.0,29.58,NNE,22,5.4,10.0,100,0.00,,,0.62,Rainwise IP-100,2013-02-28 23:03:00,
2013-02-28 18:08:00,33.5,35.0,29.57,East,90,5.4,14.0,100,0.00,,,0.62,Rainwise IP-100,2013-02-28 23:08:00,
2013-02-28 18:13:00,33.4,33.0,29.58,ESE,112,2.8,11.4,100,0.00,,,0.62,Rainwise IP-100,2013-02-28 23:13:00,
2013-02-28 18:18:00,33.3,33.0,29.56,East,90,11.7,11.9,100,0.00,,,0.62,Rainwise IP-100,2013-02-28 23:18:00,
2013-02-28 18:23:00,33.3,33.0,29.57,ENE,67,5.8,13.5,100,0.06,,,0.63,Rainwise IP-100,2013-02-28 23:23:00,
2013-02-28 18:28:00,33.3,33.0,29.55,ENE,67,10.5,13.5,100,0.06,,,0.63,Rainwise IP-100,2013-02-28 23:28:00,
2013-02-28 18:33:00,33.3,33.0,29.58,ENE,67,5.8,10.5,100,0.00,,,0.63,Rainwise IP-100,2013-02-28 23:33:00,
2013-02-28 18:38:00,33.3,33.0,29.58,East,90,3.5,7.0,100,0.00,,,0.63,Rainwise IP-100,2013-02-28 23:38:00,
2013-02-28 18:43:00,33.4,33.0,29.56,ENE,67,2.1,9.6,100,0.00,,,0.63,Rainwise IP-100,2013-02-28 23:43:00,
2013-02-28 18:48:00,33.4,33.0,29.57,East,90,2.8,11.0,100,0.00,,,0.63,Rainwise IP-100,2013-02-28 23:48:00,
2013-02-28 18:53:00,33.4,33.0,29.57,ENE,67,5.8,11.7,100,0.00,,,0.63,Rainwise IP-100,2013-02-28 23:53:00,
2013-02-28 18:59:00,33.4,33.0,29.55,ENE,67,4.0,10.0,100,0.00,,,0.63,Rainwise IP-100,2013-02-28 23:59:00,
2013-02-28 19:03:00,33.4,33.0,29.57,East,90,7.5,13.3,100,0.00,,,0.63,Rainwise IP-100,2013-03-01 00:03:00,
2013-02-28 19:08:00,33.4,33.0,29.56,ESE,112,4.7,9.6,100,0.00,,,0.63,Rainwise IP-100,2013-03-01 00:08:00,
2013-02-28 19:13:00,33.4,33.0,29.54,ENE,67,11.9,11.9,100,0.00,,,0.63,Rainwise IP-100,2013-03-01 00:13:00,
2013-02-28 19:19:00,33.4,33.0,29.54,NNE,22,7.2,12.1,100,0.00,,,0.63,Rainwise IP-100,2013-03-01 00:19:00,
2013-02-28 19:24:00,33.4,33.0,29.54,ENE,67,3.7,7.2,100,0.00,,,0.63,Rainwise IP-100,2013-03-01 00:24:00,
2013-02-28 19:29:00,33.4,33.0,29.56,East,90,3.7,12.6,100,0.00,,,0.63,Rainwise IP-100,2013-03-01 00:29:00,
2013-02-28 19:34:00,33.4,33.0,29.55,ENE,67,7.9,10.5,100,0.00,,,0.63,Rainwise IP-100,2013-03-01 00:34:00,
2013-02-28 19:39:00,33.4,33.0,29.56,NNE,22,4.0,7.9,100,0.00,,,0.63,Rainwise IP-100,2013-03-01 00:39:00,
2013-02-28 19:44:00,33.4,33.0,29.55,NNW,337,2.6,8.9,100,0.00,,,0.63,Rainwise IP-100,2013-03-01 00:44:00,
2013-02-28 19:49:00,33.5,35.0,29.57,ESE,112,4.9,4.9,100,0.00,,,0.63,Rainwise IP-100,2013-03-01 00:49:00,
2013-02-28 19:54:00,33.5,35.0,29.57,ENE,67,5.6,5.6,100,0.00,,,0.63,Rainwise IP-100,2013-03-01 00:54:00,
2013-02-28 19:59:00,33.5,35.0,29.52,ENE,67,10.3,10.3,100,0.00,,,0.63,Rainwise IP-100,2013-03-01 00:59:00,
2013-02-28 20:04:00,33.5,35.0,29.57,ESE,112,0.0,10.3,100,0.00,,,0.63,Rainwise IP-100,2013-03-01 01:04:00,
2013-02-28 20:09:00,33.6,35.0,29.55,ESE,112,4.9,10.3,100,0.00,,,0.63,Rainwise IP-100,2013-03-01 01:09:00,
2013-02-28 20:14:00,33.6,35.0,29.58,ENE,67,1.2,7.5,100,0.00,,,0.63,Rainwise IP-100,2013-03-01 01:14:00,
2013-02-28 20:19:00,33.6,35.0,29.55,ENE,67,6.3,6.3,100,0.00,,,0.63,Rainwise IP-100,2013-03-01 01:19:00,
2013-02-28 20:24:00,33.6,35.0,29.57,ESE,112,1.2,6.3,100,0.00,,,0.63,Rainwise IP-100,2013-03-01 01:24:00,
2013-02-28 20:29:00,33.6,35.0,29.57,ENE,67,1.9,4.9,100,0.00,,,0.63,Rainwise IP-100,2013-03-01 01:29:00,
2013-02-28 20:34:00,33.6,35.0,29.55,East,90,1.6,7.5,100,0.00,,,0.63,Rainwise IP-100,2013-03-01 01:34:00,
2013-02-28 20:39:00,33.6,35.0,29.54,ENE,67,1.9,6.3,100,0.00,,,0.63,Rainwise IP-100,2013-03-01 01:39:00,
2013-02-28 20:44:00,33.6,35.0,29.55,East,90,4.0,7.2,100,0.00,,,0.63,Rainwise IP-100,2013-03-01 01:44:00,
2013-02-28 20:49:00,33.5,35.0,29.53,WNW,292,0.0,7.2,100,0.00,,,0.63,Rainwise IP-100,2013-03-01 01:49:00,
2013-02-28 20:56:00,33.4,33.0,29.55,ENE,67,3.3,6.1,100,0.00,,,0.63,Rainwise IP-100,2013-03-01 01:56:00,
2013-02-28 21:01:00,33.4,33.0,29.56,North,0,0.0,1.6,100,0.00,,,0.63,Rainwise IP-100,2013-03-01 02:01:00,
2013-02-28 21:06:00,33.4,33.0,29.54,North,0,0.0,0.0,100,0.00,,,0.63,Rainwise IP-100,2013-03-01 02:06:00,
2013-02-28 21:12:00,33.4,33.0,29.57,East,90,4.7,8.2,100,0.00,,,0.63,Rainwise IP-100,2013-03-01 02:12:00,
2013-02-28 21:17:00,33.5,35.0,29.54,ESE,112,1.6,6.5,100,0.00,,,0.63,Rainwise IP-100,2013-03-01 02:17:00,
2013-02-28 21:22:00,33.5,35.0,29.55,ENE,67,0.0,6.3,100,0.00,,,0.63,Rainwise IP-100,2013-03-01 02:22:00,
2013-02-28 21:27:00,33.5,35.0,29.53,ESE,112,4.2,7.7,100,0.00,,,0.63,Rainwise IP-100,2013-03-01 02:27:00,
2013-02-28 21:32:00,33.6,35.0,29.55,ENE,67,5.4,5.4,100,0.00,,,0.63,Rainwise IP-100,2013-03-01 02:32:00,
2013-02-28 21:37:00,33.6,35.0,29.54,East,90,3.3,5.4,100,0.00,,,0.63,Rainwise IP-100,2013-03-01 02:37:00,
2013-02-28 21:42:00,33.7,35.0,29.55,ESE,112,3.0,9.3,100,0.00,,,0.63,Rainwise IP-100,2013-03-01 02:42:00,
2013-02-28 21:47:00,33.7,35.0,29.54,ESE,112,4.2,9.1,100,0.00,,,0.63,Rainwise IP-100,2013-03-01 02:47:00,
2013-02-28 21:52:00,33.7,35.0,29.56,ENE,67,9.1,12.6,100,0.00,,,0.63,Rainwise IP-100,2013-03-01 02:52:00,
2013-02-28 21:57:00,33.7,35.0,29.55,North,0,5.4,11.2,100,0.00,,,0.63,Rainwise IP-100,2013-03-01 02:57:00,
2013-02-28 22:02:00,33.7,35.0,29.54,ESE,112,5.6,7.0,100,0.00,,,0.63,Rainwise IP-100,2013-03-01 03:02:00,
2013-02-28 22:07:00,33.8,35.0,29.55,ENE,67,4.9,8.4,100,0.00,,,0.63,Rainwise IP-100,2013-03-01 03:07:00,
2013-02-28 22:12:00,33.8,35.0,29.53,ENE,67,4.9,10.7,100,0.00,,,0.63,Rainwise IP-100,2013-03-01 03:12:00,
2013-02-28 22:17:00,33.8,35.0,29.53,ESE,112,7.2,14.0,100,0.00,,,0.63,Rainwise IP-100,2013-03-01 03:17:00,
2013-02-28 22:22:00,33.8,35.0,29.53,East,90,5.1,12.4,100,0.00,,,0.63,Rainwise IP-100,2013-03-01 03:22:00,
2013-02-28 22:27:00,33.8,35.0,29.51,East,90,10.5,11.7,100,0.00,,,0.63,Rainwise IP-100,2013-03-01 03:27:00,
2013-02-28 22:32:00,33.8,35.0,29.53,ENE,67,8.4,11.9,100,0.00,,,0.63,Rainwise IP-100,2013-03-01 03:32:00,
2013-02-28 22:37:00,33.9,35.0,29.53,ENE,67,3.3,9.8,100,0.00,,,0.63,Rainwise IP-100,2013-03-01 03:37:00,
2013-02-28 22:42:00,33.9,35.0,29.53,East,90,10.0,11.7,100,0.00,,,0.63,Rainwise IP-100,2013-03-01 03:42:00,
2013-02-28 22:47:00,33.9,35.0,29.53,ESE,112,6.8,14.2,100,0.00,,,0.63,Rainwise IP-100,2013-03-01 03:47:00,
2013-02-28 22:52:00,33.8,35.0,29.53,ESE,112,4.4,13.3,100,0.00,,,0.63,Rainwise IP-100,2013-03-01 03:52:00,
2013-02-28 22:57:00,33.9,35.0,29.52,ESE,112,3.3,10.7,100,0.00,,,0.63,Rainwise IP-100,2013-03-01 03:57:00,
2013-02-28 23:02:00,33.8,35.0,29.53,East,90,8.6,11.7,100,0.00,,,0.63,Rainwise IP-100,2013-03-01 04:02:00,
2013-02-28 23:07:00,33.8,35.0,29.53,ENE,67,3.5,10.5,100,0.00,,,0.63,Rainwise IP-100,2013-03-01 04:07:00,
2013-02-28 23:12:00,33.8,35.0,29.50,East,90,6.1,13.8,100,0.00,,,0.63,Rainwise IP-100,2013-03-01 04:12:00,
2013-02-28 23:17:00,33.8,35.0,29.51,NE,45,10.3,14.9,100,0.00,,,0.63,Rainwise IP-100,2013-03-01 04:17:00,
2013-02-28 23:22:00,33.8,35.0,29.51,NE,45,5.1,15.6,100,0.00,,,0.63,Rainwise IP-100,2013-03-01 04:22:00,
2013-02-28 23:27:00,33.8,35.0,29.51,ENE,67,5.6,18.7,100,0.00,,,0.63,Rainwise IP-100,2013-03-01 04:27:00,
2013-02-28 23:32:00,33.9,35.0,29.53,ENE,67,12.6,13.1,100,0.00,,,0.63,Rainwise IP-100,2013-03-01 04:32:00,
2013-02-28 23:37:00,33.9,35.0,29.51,ENE,67,8.9,14.7,100,0.00,,,0.63,Rainwise IP-100,2013-03-01 04:37:00,
2013-02-28 23:42:00,33.9,35.0,29.53,ENE,67,14.9,16.3,100,0.00,,,0.63,Rainwise IP-100,2013-03-01 04:42:00,
2013-02-28 23:47:00,33.9,35.0,29.52,ENE,67,5.4,16.8,100,0.00,,,0.63,Rainwise IP-100,2013-03-01 04:47:00,
2013-02-28 23:52:00,33.9,35.0,29.51,ENE,67,7.2,15.4,100,0.00,,,0.63,Rainwise IP-100,2013-03-01 04:52:00,
2013-02-28 23:57:00,33.9,35.0,29.50,East,90,9.1,15.6,100,0.00,,,0.63,Rainwise IP-100,2013-03-01 04:57:00,